Regional Weather Roundup
Issued by NWS

Home | Current Version | Previous Version | Text Only | Print | Product List | Glossary On
Versions: 1 2 3 4 5 6 7 8 9 10 11 12 13 14 15 16 17 18 19 20 21 22 23 24 25 26 27 28 29 30 31 32 33 34 35 36 37 38 39 40 41 42 43 44 45 46 47 48 49 50
000
ASCA44 KEWX 230520
RWRMX

LATIN AMERICA AND CARIBBEAN REGIONAL WEATHER ROUNDUP
NATIONAL WEATHER SERVICE AUSTIN/SAN ANTONIO TX
1200 AM CDT THU MAR 23 2017

NOTE: "FAIR" INDICATED FEW OR NO CLOUDS BELOW 12,000 FEET WITH NO
SIGNIFICANT WEATHER AND/OR OBSTRUCTIONS TO VISIBILITY.

BAJA CALIFORNIA

CITY           SKY/WX    TMP DP  RH WIND       PRES   REMARKS
LA PAZ         PTCLDY    68  54  60 S7        29.97R
MEXICALI       CLEAR     64  32  29 W14       29.89R
S.J. DEL CABO  MOCLDY    72  54  53 CALM      29.95R
TIJUANA        MOCLDY    55  50  82 W7        30.05R

NORTHWESTERN MEXICO

CITY           SKY/WX    TMP DP  RH WIND       PRES   REMARKS
CULIACAN       PTCLDY    70  63  78 CALM      29.90R
HERMOSILLO     CLEAR     72  54  53 SW7       29.93S
LOS MOCHIS       N/A    N/A N/A N/A MISG        N/A

NORTHEASTERN MEXICO

CITY           SKY/WX    TMP DP  RH WIND       PRES   REMARKS
CHIHUAHUA      MOCLDY    66  19  16 S3        30.04R
MONCLOVA         N/A    N/A N/A N/A MISG        N/A
MONTERREY      CLEAR     70  63  78 E15       30.05R
REYNOSA          N/A    N/A N/A N/A MISG        N/A
SALTILLO       CLEAR     61  45  55 N12       30.21S
CD. VICTORIA   CLEAR     72  61  68 S14       30.10R

WESTERN MEXICO

CITY           SKY/WX    TMP DP  RH WIND       PRES   REMARKS
AGUASCALIENTES CLEAR     70  23  17 S3        30.23R
COLIMA           N/A    N/A N/A N/A MISG        N/A
DEL BAJIO      CLEAR     68  28  22 E6        30.28R
GUADALAJARA    CLEAR     72  37  28 W6        30.14R
MAZATLAN       CLEAR     72  64  78 CALM      29.95R
P. VALLARTA    PTCLDY    73  70  88 CALM      29.93R
URUAPAN          N/A    N/A N/A N/A MISG        N/A
ZACATECAS      CLEAR     64  27  24 SE9       30.26R

CENTRAL MEXICO

CITY           SKY/WX    TMP DP  RH WIND       PRES   REMARKS
CUERNAVACA       N/A    N/A N/A N/A MISG        N/A
MEXICO CITY    CLEAR     61  28  29 N7        30.39S
MORELIA        CLEAR     64  34  32 CALM      30.22S
POZA RICA        N/A    N/A N/A N/A MISG        N/A
QUERETARO      CLEAR     55  39  54 SE5       30.35R
S. LUIS POTOSI CLEAR     57  45  62 SE9       30.29R
TAMPICO        PTCLDY    73  66  78 SE9       30.10S
TOLUCA         CLEAR     54  19  26 W8        30.44R

SOUTHERN MEXICO

CITY           SKY/WX    TMP DP  RH WIND       PRES   REMARKS
ACAPULCO       PTCLDY    77  72  83 CALM      29.97R
B. DE HUATULCO MOCLDY    75  72  88 CALM      30.01S
P. ESCONDIDO     N/A    N/A N/A N/A MISG        N/A
VERACRUZ       PTCLDY    73  68  83 NE5       30.10S

YUCATAN PENINSULA

CITY           SKY/WX    TMP DP  RH WIND       PRES   REMARKS
CAMPECHE         N/A    N/A N/A N/A MISG        N/A
CANCUN         PTCLDY    73  63  68 N5        30.12F
CHETUMAL         N/A    N/A N/A N/A MISG        N/A
CD. DEL CARMEN CLEAR     77  64  65 NE18      30.04F
COZUMEL          N/A    N/A N/A N/A MISG        N/A
MERIDA         CLEAR     73  64  73 NE5       30.12R
MINATITLAN       N/A    N/A N/A N/A MISG        N/A
TAPACHULA      CLEAR     77  72  83 CALM      29.93R
TUX. GUTIERREZ CLEAR     73  59  60 W9        30.04R
VILLAHERMOSA   CLEAR     72  70  94 CALM      30.08R

CENTRAL AMERICA

CITY           SKY/WX    TMP DP  RH WIND       PRES   REMARKS

CARIBBEAN

CITY           SKY/WX    TMP DP  RH WIND       PRES   REMARKS
ARUBA          PTCLDY    81  75  83 E13       29.89F
CURACAO        PTCLDY    81  75  83 E13       29.92S
KINGSTON       PTCLDY    77  70  78 N7        29.97S
NASSAU           N/A     61  50  67 CALM      30.14S
SAN JUAN       MOCLDY    75  72  88 S6        29.98F
SANTO DOMINGO  PTCLDY    75  72  88 NE5       29.94F
ST. CROIX      CLOUDY    79  73  83 E8        29.99
ST. THOMAS     MOCLDY    77  73  88 E15       29.97

$$




USA.gov is the U.S. government's official web portal to all federal, state and local government web resources and services.